Regional Weather Roundup
Issued by NWS

Home | Current Version | Previous Version | Text Only | Print | Product List | Glossary On
Versions: 1 2 3 4 5 6 7 8 9 10 11 12 13 14 15 16 17 18 19 20 21 22 23 24 25 26 27 28 29 30 31 32 33 34 35 36 37 38 39 40 41 42 43 44 45 46 47 48 49 50
000
ASUS43 KTOP 222159
RWRKS

WEATHER ROUNDUP FOR KANSAS
NATIONAL WEATHER SERVICE GOODLAND KS
500 PM CDT FRI JUL 22 2016

NOTE:  "FAIR" INDICATES FEW OR NO CLOUDS BELOW 12,000 FEET WITH NO
SIGNIFICANT WEATHER AND/OR OBSTRUCTIONS TO VISIBILITY.

KSZ001>006-013>018-027>032-041>047-222300-
NORTHWEST KANSAS

CITY           SKY/WX    TMP DP  RH WIND       PRES   REMARKS
GOODLAND       SUNNY    101  53  20 S8        30.01F HX  99
HAYS           SUNNY    106  61  23 S17       29.92F HX 107
HILL CITY      MOSUNNY  100  69  36 SE6       29.93F HX 106
RUSSELL        SUNNY    105  60  22 S14G21    29.92F HX 106
$$

KSZ061>065-074>080-084>089-222300-
SOUTHWEST KANSAS

CITY           SKY/WX    TMP DP  RH WIND       PRES   REMARKS
DODGE CITY     SUNNY    101  57  23 S17       29.98F HX 100
ELKHART          N/A    103  60  24 S9          N/A  HX 104
GARDEN CITY    SUNNY    100  61  27 SE13      29.98F HX 101
GREAT BEND     SUNNY    106  57  20 S16       29.92F HX 105
LIBERAL        SUNNY    100  55  22 SW13      30.00F HX  99
$$

KSZ066>073-081>083-090>101-222300-
SOUTHEAST KANSAS

CITY           SKY/WX    TMP DP  RH WIND       PRES   REMARKS
CHANUTE        SUNNY     96  71  44 S12       29.97F HX 103
COFFEYVILLE    SUNNY    100  68  35 S12       29.96F HX 105
HUTCHINSON     SUNNY    105  61  23 S16       29.93F HX 106
NEWTON           N/A    102  67  31 S15       29.96F HX 107
PARSONS        SUNNY     97  70  41 S8        29.98F HX 103
WICHITA INTL   MOSUNNY  104  62  25 S14       29.93F HX 106
WICHITA JABRA  SUNNY    101  68  34 S12G20    29.94F HX 106
WINFIELD       SUNNY    100  69  36 S15G23    29.96F HX 106
$$

KSZ007>012-019>026-033>040-048>060-102>105-222300-
NORTHEAST KANSAS

CITY           SKY/WX    TMP DP  RH WIND       PRES   REMARKS
CONCORDIA      TSTM      77  68  73 N20G29    29.99F
EMPORIA        SUNNY     98  71  41 S14       29.97S HX 106
LAWRENCE       SUNNY     96  79  57 SE13      29.95S HX 114
MANHATTAN      MOSUNNY   99  70  38 W7        29.94R HX 106
OLATHE IND     SUNNY     95  78  58 S15       29.97F HX 111
OLATHE EXE     SUNNY     91  78  65 S14       29.98F HX 106
SALINA         CLOUDY   106  62  23 SW14      29.93S HX 108
TOPEKA BILLARD SUNNY     99  68  36 S17G23    29.93F HX 104
TOPEKA FORBES  SUNNY     99  72  41 S10       29.95F HX 108
$$




USA.gov is the U.S. government's official web portal to all federal, state and local government web resources and services.